Regional Weather Roundup
Issued by NWS

Home | Current Version | Previous Version | Text Only | Print | Product List | Glossary On
Versions: 1 2 3 4 5 6 7 8 9 10 11 12 13 14 15 16 17 18 19 20 21 22 23 24 25
000
ASUS46 KPQR 190010
RWROR

OREGON REGIONAL WEATHER ROUNDUP
NATIONAL WEATHER SERVICE PORTLAND OR
400 PM PST SUN FEB 18 2018

NOTE: "FAIR" INDICATES FEW OR NO CLOUDS BELOW 12,000 FEET WITH
NO SIGNIFICANT WEATHER AND/OR OBSTRUCTIONS TO VISIBILITY.

ORZ001>013-190100-
NORTHWEST OREGON


CITY           SKY/WX    TMP DP  RH WIND       PRES   REMARKS
ASTORIA        MOSUNNY   43  32  65 NE10      29.73R
6HR MIN TEMP:  37; 6HR MAX TEMP:  44; 6HR PCP:  0.02;

TILLAMOOK      LGT RAIN  36  34  93 SE3       29.77R
NEWPORT        LGT RAIN  36  32  87 NW16      29.83S WCI  26
PORTLAND       PTSUNNY   39  35  86 W7        29.73R
6HR MIN TEMP:  36; 6HR MAX TEMP:  39; 6HR PCP:  0.09;

VANCOUVER WA   PTSUNNY   39  36  89 VRB3      29.72R
6HR MIN TEMP:  36; 6HR MAX TEMP:  40; 6HR PCP:  0.10;

SCAPPOOSE      PTSUNNY   40  34  79 SW9       29.71R
6HR MIN TEMP:  34; 6HR MAX TEMP:  41; 6HR PCP:  0.14;

HILLSBORO      PTSUNNY   39  36  89 SW3       29.71R
6HR MIN TEMP:  33; 6HR MAX TEMP:  39; 6HR PCP:  0.22;

AURORA         LGT RAIN  37  35  92 SW10      29.74S WCI  30
6HR MIN TEMP:  35; 6HR MAX TEMP:  41; 6HR PCP:  0.10;

MCMINNVILLE    LGT RAIN  38  36  92 SW12      29.73S WCI  30
6HR MIN TEMP:  34; 6HR MAX TEMP:  44; 6HR PCP:  0.07;

SALEM          CLOUDY    41  30  65 SW13      29.74S
6HR MIN TEMP:  36; 6HR MAX TEMP:  44; 6HR PCP:  0.05;

CORVALLIS      RAIN      36  33  89 W7        29.80R FOG
EUGENE         PTSUNNY   38  33  82 W12       29.82S WCI  30
6HR MIN TEMP:  32; 6HR MAX TEMP:  40; 6HR PCP:  0.23;

$$

ORZ021-028-190100-
SOUTHWEST OREGON


CITY           SKY/WX    TMP DP  RH WIND       PRES   REMARKS
NORTH BEND     RAIN      37  34  89 NW22G32   29.91S FOG     WCI  26
6HR MIN TEMP:  37; 6HR MAX TEMP:  44; 6HR PCP:  0.04;

BROOKINGS      LGT RAIN  39  36  89 NW18G29   29.95F WCI  30
ROSEBURG       LGT SNOW  35  33  92 SW12G21   29.88R FOG     WCI  27
6HR MIN TEMP:  33; 6HR MAX TEMP:  41; 6HR PCP:  0.22;

SEXTON SUMMIT  LGT SNOW  25  23  92 VRB7G21   29.74S VSB 3/4
6HR MIN TEMP:  25; 6HR MAX TEMP:  28; 6HR PCP:  0.13;

GRANTS PASS    FLURRIES  36  32  87 CALM      29.90R
MEDFORD        HVY SNOW  32  31  96 NW15G28   29.85R VSB 1/4 WCI  22
6HR MIN TEMP:  33; 6HR MAX TEMP:  43; 6HR PCP:  0.03;

$$

ORZ014>016-041-190100-
COLUMBIA GORGE


CITY           SKY/WX    TMP DP  RH WIND       PRES   REMARKS
TROUTDALE      CLOUDY    37  34  89 CALM      29.73S
6HR MIN TEMP:  34; 6HR MAX TEMP:  40; 6HR PCP:  0.20;

HOOD RIVER     SNOW      32  32 100 CALM      29.71R VSB 1/2
THE DALLES     CLOUDY    40  31  70 NW13      29.70R
6HR MIN TEMP:  39; 6HR MAX TEMP:  44;

$$

ORZ029>031-041-044-049-050-061>064-502-503-505>511-190100-
EASTERN OREGON


CITY           SKY/WX    TMP DP  RH WIND       PRES   REMARKS
MADRAS         NOT AVBL
REDMOND        MOSUNNY   35  17  47 W13G21    29.63R WCI  26
6HR MIN TEMP:  30; 6HR MAX TEMP:  40; 6HR PCP: TRACE;

BEND           MOSUNNY   36  12  38 W7        29.62S
PRINEVILLE     MOSUNNY   30  16  55 W12G17    29.64R WCI  21
KLAMATH FALLS  LGT SNOW  27  22  81 NW18G28   29.69S VSB 3/4 WCI  14
6HR MIN TEMP:  27; 6HR MAX TEMP:  35; 6HR PCP: TRACE;

LAKEVIEW       MOSUNNY   31  11  43 W26G32    29.62F WCI  17
HERMISTON      FLURRIES  37  31  78 NE14      29.71R WCI  28
6HR MIN TEMP:  37; 6HR MAX TEMP:  44; 6HR PCP: TRACE;

PENDLETON      PTSUNNY   36  28  73 NE13      29.66R WCI  27
6HR MIN TEMP:  35; 6HR MAX TEMP:  42; 6HR PCP: TRACE;

JOHN DAY       PTSUNNY   32  16  52 NW17G29   29.59R WCI  21
MEACHAM        CLOUDY    25  20  81 CALM      29.58S
6HR MIN TEMP:  25; 6HR MAX TEMP:  31; 6HR PCP:  0.06;

LA GRANDE      LGT SNOW  28  25  86 CALM      29.65R FOG
6HR MIN TEMP:  27; 6HR MAX TEMP:  34; 6HR PCP:  0.07;

BAKER CITY     PTSUNNY   32  19  58 N17       29.59R WCI  21
6HR MIN TEMP:  31; 6HR MAX TEMP:  39; 6HR PCP: TRACE;

BURNS          MOSUNNY   30  13  49 W14G23    29.59F WCI  19
6HR MIN TEMP:  25; 6HR MAX TEMP:  34; 6HR PCP: TRACE;

ROME             N/A     34  17  50 W9        29.59F
6HR MIN TEMP:  32; 6HR MAX TEMP:  42; 6HR PCP:  0.01;

ONTARIO        PTSUNNY   40  18  41 NW13      29.62R
6HR MIN TEMP:  33; 6HR MAX TEMP:  44; 6HR PCP: TRACE;

$$




USA.gov is the U.S. government's official web portal to all federal, state and local government web resources and services.